BVR114 LIPE-LFPG

Flight info

Callsign BVR114
Flight time 1h 33m
Altitude 34000
Route LUPOS DCT AOSTA L615 DJL
Aircraft A321/M-SDE3FGHIRWY/LB1

Departure

Time 2026-05-05 07:47
Airport Bologna Guglielmo Marconi Airport (LIPE)

Arrival

Time 2026-05-05 09:21
Airport Charles de Gaulle International Airport (LFPG)
Time Latitude Longitude Altitude Speed Heading
2026-05-05 07:32 44.53070 11.29316 129 ft 0 kts 207°
2026-05-05 07:40 44.53073 11.29318 130 ft 3 kts 207°
2026-05-05 07:40 44.53095 11.29338 126 ft 4 kts 225°
2026-05-05 07:40 44.53109 11.29367 127 ft 4 kts 262°
2026-05-05 07:40 44.53108 11.29390 125 ft 0 kts 297°
2026-05-05 07:42 44.53109 11.29386 125 ft 2 kts 297°
2026-05-05 07:42 44.53120 11.29356 127 ft 5 kts 297°
2026-05-05 07:43 44.53142 11.29295 127 ft 9 kts 297°
2026-05-05 07:43 44.53187 11.29213 126 ft 13 kts 327°
2026-05-05 07:43 44.53256 11.29112 128 ft 17 kts 300°
2026-05-05 07:43 44.53316 11.28952 128 ft 21 kts 296°
2026-05-05 07:44 44.53386 11.28757 127 ft 24 kts 297°
2026-05-05 07:44 44.53468 11.28528 128 ft 28 kts 296°
2026-05-05 07:44 44.53559 11.28271 127 ft 32 kts 296°
2026-05-05 07:44 44.53663 11.27990 129 ft 32 kts 296°
2026-05-05 07:45 44.53754 11.27734 126 ft 27 kts 296°
2026-05-05 07:45 44.53833 11.27516 127 ft 23 kts 297°
2026-05-05 07:45 44.53905 11.27344 128 ft 18 kts 315°
2026-05-05 07:45 44.54001 11.27248 128 ft 16 kts 327°
2026-05-05 07:46 44.54093 11.27265 127 ft 14 kts 61°
2026-05-05 07:46 44.54077 11.27385 129 ft 11 kts 116°
2026-05-05 07:46 44.54074 11.27395 128 ft 0 kts 116°
2026-05-05 07:46 44.53998 11.27606 128 ft 60 kts 116°
2026-05-05 07:47 44.53710 11.28406 129 ft 121 kts 117°
2026-05-05 07:47 44.53260 11.29671 185 ft 163 kts 115°
2026-05-05 07:47 44.52800 11.31068 904 ft 152 kts 113°
2026-05-05 07:47 44.52507 11.32476 1525 ft 155 kts 90°
2026-05-05 07:48 44.52758 11.34041 1776 ft 178 kts 67°
2026-05-05 07:48 44.53546 11.35512 1965 ft 202 kts 42°
2026-05-05 07:48 44.54829 11.36456 2308 ft 216 kts 14°
2026-05-05 07:48 44.56348 11.36659 2774 ft 222 kts
2026-05-05 07:49 44.57900 11.36986 3210 ft 228 kts 13°
2026-05-05 07:49 44.59485 11.37458 3484 ft 243 kts
2026-05-05 07:49 44.61141 11.36794 3617 ft 260 kts 323°
2026-05-05 07:49 44.62315 11.34845 4057 ft 267 kts 290°
2026-05-05 07:50 44.62598 11.32318 4808 ft 262 kts 259°
2026-05-05 07:50 44.62170 11.29853 5633 ft 259 kts 252°
2026-05-05 07:50 44.61745 11.27416 6496 ft 258 kts 254°
2026-05-05 07:50 44.61359 11.24942 7297 ft 260 kts 255°
2026-05-05 07:51 44.60982 11.22446 8089 ft 262 kts 255°
2026-05-05 07:51 44.60603 11.19965 8846 ft 263 kts 255°
2026-05-05 07:51 44.60208 11.17417 9596 ft 265 kts 255°
2026-05-05 07:51 44.59810 11.14898 10249 ft 270 kts 255°
2026-05-05 07:52 44.59375 11.12210 10407 ft 293 kts 255°
2026-05-05 07:52 44.58903 11.09314 10607 ft 311 kts 255°
2026-05-05 07:52 44.58421 11.06346 11098 ft 318 kts 255°
2026-05-05 07:52 44.57926 11.03297 11681 ft 322 kts 255°
2026-05-05 07:53 44.57424 11.00213 12287 ft 326 kts 255°
2026-05-05 07:53 44.56917 10.97093 12893 ft 330 kts 255°
2026-05-05 07:53 44.56404 10.93940 13489 ft 334 kts 255°
2026-05-05 07:53 44.55881 10.90743 14059 ft 338 kts 255°
2026-05-05 07:54 44.55352 10.87520 14597 ft 341 kts 255°
2026-05-05 07:54 44.54815 10.84266 15145 ft 344 kts 255°
2026-05-05 07:54 44.54272 10.80978 15738 ft 347 kts 255°
2026-05-05 07:54 44.53722 10.77669 16374 ft 351 kts 255°
2026-05-05 07:55 44.53167 10.74329 17019 ft 354 kts 255°
2026-05-05 07:55 44.52603 10.70945 17692 ft 357 kts 255°
2026-05-05 07:55 44.52035 10.67543 18352 ft 361 kts 254°
2026-05-05 07:55 44.51468 10.64092 18912 ft 365 kts 257°
2026-05-05 07:56 44.51253 10.60515 19443 ft 372 kts 269°
2026-05-05 07:56 44.51587 10.56929 19918 ft 380 kts 281°
2026-05-05 07:56 44.52501 10.53409 20326 ft 388 kts 293°
2026-05-05 07:56 44.53872 10.50090 20749 ft 393 kts 297°
2026-05-05 07:57 44.55267 10.46806 21153 ft 396 kts 297°
2026-05-05 07:57 44.56679 10.43455 21590 ft 399 kts 297°
2026-05-05 07:57 44.58087 10.40095 22062 ft 402 kts 297°
2026-05-05 07:57 44.59028 10.37846 22361 ft 404 kts 297°
2026-05-05 07:58 44.60923 10.33315 22963 ft 408 kts 297°
2026-05-05 07:58 44.62366 10.29869 23365 ft 411 kts 297°
2026-05-05 07:58 44.63820 10.26390 23718 ft 414 kts 297°
2026-05-05 07:58 44.65283 10.22885 24064 ft 417 kts 297°
2026-05-05 07:59 44.66258 10.20551 24303 ft 418 kts 297°
2026-05-05 07:59 44.67732 10.17022 24672 ft 421 kts 297°
2026-05-05 07:59 44.69214 10.13472 25048 ft 423 kts 297°
2026-05-05 07:59 44.70707 10.09885 25447 ft 425 kts 297°
2026-05-05 08:00 44.72198 10.06291 25830 ft 427 kts 297°
2026-05-05 08:00 44.73699 10.02667 26220 ft 429 kts 297°
2026-05-05 08:00 44.75205 9.99022 26588 ft 432 kts 297°
2026-05-05 08:00 44.76718 9.95361 26921 ft 435 kts 297°
2026-05-05 08:01 44.78243 9.91671 27219 ft 438 kts 297°
2026-05-05 08:01 44.79782 9.87949 27541 ft 441 kts 296°
2026-05-05 08:01 44.81326 9.84205 27872 ft 443 kts 296°
2026-05-05 08:01 44.82878 9.80435 28202 ft 446 kts 296°
2026-05-05 08:02 44.84434 9.76651 28508 ft 448 kts 296°
2026-05-05 08:02 44.86001 9.72834 28790 ft 450 kts 296°
2026-05-05 08:02 44.87566 9.69011 29064 ft 452 kts 296°
2026-05-05 08:02 44.89143 9.65157 29349 ft 454 kts 296°
2026-05-05 08:03 44.90730 9.61267 29635 ft 456 kts 296°
2026-05-05 08:03 44.92312 9.57385 29879 ft 458 kts 296°
2026-05-05 08:03 44.93883 9.53534 30156 ft 459 kts 296°
2026-05-05 08:03 44.95475 9.49626 30389 ft 459 kts 296°
2026-05-05 08:04 44.97067 9.45712 30617 ft 459 kts 296°
2026-05-05 08:04 44.98656 9.41792 30842 ft 460 kts 296°
2026-05-05 08:04 45.00246 9.37868 31082 ft 460 kts 296°
2026-05-05 08:04 45.01832 9.33948 31329 ft 460 kts 296°
2026-05-05 08:05 45.03420 9.30025 31622 ft 459 kts 296°
2026-05-05 08:05 45.05000 9.26125 31948 ft 456 kts 295°
2026-05-05 08:05 45.06573 9.22234 32305 ft 454 kts 295°
2026-05-05 08:05 45.08130 9.18361 32672 ft 451 kts 295°
2026-05-05 08:06 45.09678 9.14499 33024 ft 448 kts 295°
2026-05-05 08:06 45.11212 9.10674 33354 ft 446 kts 295°
2026-05-05 08:06 45.12739 9.06866 33674 ft 444 kts 295°
2026-05-05 08:06 45.14261 9.03062 33947 ft 443 kts 295°
2026-05-05 08:07 45.17249 8.95581 33982 ft 430 kts 295°
2026-05-05 08:07 45.20171 8.88257 33996 ft 428 kts 294°
2026-05-05 08:08 45.23098 8.80884 33976 ft 427 kts 294°
2026-05-05 08:08 45.26017 8.73510 34027 ft 430 kts 294°
2026-05-05 08:09 45.28930 8.66134 34029 ft 430 kts 294°
2026-05-05 08:09 45.31859 8.58720 34027 ft 430 kts 294°
2026-05-05 08:10 45.34775 8.51298 34048 ft 430 kts 294°
2026-05-05 08:10 45.37691 8.43863 34034 ft 430 kts 294°
2026-05-05 08:11 45.40603 8.36411 34001 ft 430 kts 294°
2026-05-05 08:11 45.43498 8.28994 34000 ft 430 kts 294°
2026-05-05 08:12 45.46398 8.21548 33995 ft 429 kts 294°
2026-05-05 08:12 45.49285 8.14101 34016 ft 430 kts 294°
2026-05-05 08:13 45.52169 8.06637 33989 ft 431 kts 294°
2026-05-05 08:13 45.55063 7.99143 33983 ft 432 kts 294°
2026-05-05 08:14 45.57963 7.91618 33984 ft 432 kts 293°
2026-05-05 08:14 45.60847 7.84087 33981 ft 432 kts 293°
2026-05-05 08:15 45.63725 7.76557 33997 ft 432 kts 293°
2026-05-05 08:15 45.66597 7.69025 33992 ft 433 kts 293°
2026-05-05 08:16 45.69479 7.61451 33988 ft 433 kts 293°
2026-05-05 08:16 45.72356 7.53883 33989 ft 432 kts 293°
2026-05-05 08:17 45.75228 7.46292 34010 ft 434 kts 293°
2026-05-05 08:17 45.78081 7.38690 34020 ft 434 kts 291°
2026-05-05 08:18 45.79946 7.30599 34015 ft 422 kts 274°
2026-05-05 08:18 45.80631 7.22312 34007 ft 419 kts 271°
2026-05-05 08:19 45.81368 7.14001 33995 ft 423 kts 277°
2026-05-05 08:19 45.82243 7.09939 33981 ft 430 kts 288°
2026-05-05 08:19 45.83673 7.06136 34001 ft 439 kts 299°
2026-05-05 08:20 45.85623 7.02725 33982 ft 446 kts 311°
2026-05-05 08:20 45.88048 6.99881 33964 ft 453 kts 322°
2026-05-05 08:20 45.93353 6.94976 33927 ft 455 kts 323°
2026-05-05 08:21 45.98638 6.90095 33924 ft 437 kts 323°
2026-05-05 08:21 46.01115 6.87809 33937 ft 423 kts 323°
2026-05-05 08:21 46.03592 6.85505 33948 ft 426 kts 322°
2026-05-05 08:22 46.08647 6.80766 33923 ft 442 kts 322°
2026-05-05 08:22 46.13900 6.75841 33942 ft 458 kts 323°
2026-05-05 08:23 46.19355 6.70729 33919 ft 474 kts 323°
2026-05-05 08:23 46.24945 6.65498 33918 ft 486 kts 323°
2026-05-05 08:24 46.30676 6.60114 33921 ft 494 kts 323°
2026-05-05 08:24 46.36477 6.54653 33918 ft 501 kts 323°
2026-05-05 08:25 46.42323 6.49131 33923 ft 507 kts 323°
2026-05-05 08:25 46.48023 6.43093 34275 ft 500 kts 317°
2026-05-05 08:26 46.50708 6.39916 34365 ft 481 kts 317°
2026-05-05 08:26 46.53203 6.36893 34395 ft 463 kts 311°
2026-05-05 08:26 46.55301 6.33437 34394 ft 451 kts 302°
2026-05-05 08:26 46.57080 6.29726 34092 ft 446 kts 298°
2026-05-05 08:27 46.58777 6.25959 33873 ft 446 kts 298°
2026-05-05 08:27 46.60549 6.22249 33914 ft 449 kts 301°
2026-05-05 08:27 46.64493 6.15120 33899 ft 454 kts 307°
2026-05-05 08:28 46.68743 6.08301 33920 ft 451 kts 308°
2026-05-05 08:28 46.70840 6.04984 33888 ft 440 kts 308°
2026-05-05 08:28 46.72883 6.01710 33452 ft 434 kts 307°
2026-05-05 08:29 46.74885 5.98427 32903 ft 430 kts 307°
2026-05-05 08:29 46.76845 5.95139 32349 ft 428 kts 306°
2026-05-05 08:29 46.78763 5.91881 31789 ft 426 kts 306°
2026-05-05 08:30 46.82607 5.85337 30726 ft 423 kts 307°
2026-05-05 08:30 46.84531 5.82073 30150 ft 422 kts 307°
2026-05-05 08:30 46.86447 5.78832 29516 ft 421 kts 307°
2026-05-05 08:30 46.88361 5.75603 28921 ft 418 kts 307°
2026-05-05 08:31 46.90245 5.72438 28394 ft 414 kts 308°
2026-05-05 08:31 46.92131 5.69276 27878 ft 410 kts 307°
2026-05-05 08:31 46.93997 5.66149 27378 ft 406 kts 307°
2026-05-05 08:31 46.95841 5.63046 26859 ft 402 kts 307°
2026-05-05 08:32 46.97664 5.59963 26384 ft 398 kts 307°
2026-05-05 08:32 46.99471 5.56896 25892 ft 395 kts 307°
2026-05-05 08:32 47.01255 5.53869 25424 ft 391 kts 307°
2026-05-05 08:32 47.03030 5.50864 24955 ft 388 kts 307°
2026-05-05 08:33 47.04789 5.47883 24529 ft 384 kts 307°
2026-05-05 08:33 47.06526 5.44931 24078 ft 382 kts 306°
2026-05-05 08:33 47.08250 5.41985 23605 ft 380 kts 306°
2026-05-05 08:33 47.09944 5.39090 23122 ft 377 kts 306°
2026-05-05 08:34 47.11648 5.36182 22634 ft 374 kts 307°
2026-05-05 08:34 47.13329 5.33311 22247 ft 368 kts 307°
2026-05-05 08:34 47.14988 5.30484 21869 ft 362 kts 307°
2026-05-05 08:34 47.16627 5.27688 21451 ft 359 kts 307°
2026-05-05 08:35 47.18248 5.24916 21032 ft 356 kts 308°
2026-05-05 08:35 47.19853 5.22173 20612 ft 353 kts 308°
2026-05-05 08:35 47.21447 5.19445 20191 ft 350 kts 308°
2026-05-05 08:35 47.23024 5.16732 19804 ft 347 kts 307°
2026-05-05 08:36 47.24590 5.14030 19439 ft 345 kts 308°
2026-05-05 08:36 47.26139 5.11359 19066 ft 342 kts 308°
2026-05-05 08:36 47.27822 5.08893 18672 ft 342 kts 320°
2026-05-05 08:36 47.29703 5.06765 18220 ft 341 kts 321°
2026-05-05 08:37 47.31580 5.04647 17741 ft 338 kts 321°
2026-05-05 08:37 47.33441 5.02547 17270 ft 336 kts 320°
2026-05-05 08:37 47.35293 5.00453 16804 ft 334 kts 320°
2026-05-05 08:37 47.37134 4.98371 16365 ft 332 kts 320°
2026-05-05 08:38 47.38956 4.96309 15934 ft 329 kts 320°
2026-05-05 08:38 47.40741 4.94279 15509 ft 327 kts 320°
2026-05-05 08:38 47.42560 4.92201 15073 ft 325 kts 320°
2026-05-05 08:38 47.44340 4.90168 14647 ft 323 kts 320°
2026-05-05 08:39 47.46121 4.88138 14226 ft 322 kts 319°
2026-05-05 08:39 47.47886 4.86126 13817 ft 320 kts 319°
2026-05-05 08:39 47.49647 4.84122 13369 ft 318 kts 320°
2026-05-05 08:39 47.51372 4.82155 12904 ft 317 kts 320°
2026-05-05 08:40 47.53111 4.80168 12468 ft 315 kts 320°
2026-05-05 08:40 47.54850 4.78181 12043 ft 313 kts 320°
2026-05-05 08:40 47.56570 4.76214 11604 ft 311 kts 320°
2026-05-05 08:40 47.58274 4.74262 11195 ft 309 kts 320°
2026-05-05 08:41 47.59969 4.72318 10781 ft 307 kts 320°
2026-05-05 08:41 47.61649 4.70388 10422 ft 305 kts 320°
2026-05-05 08:41 47.63321 4.68465 10065 ft 303 kts 320°
2026-05-05 08:41 47.64983 4.66551 9708 ft 301 kts 320°
2026-05-05 08:42 47.66640 4.64646 9350 ft 300 kts 320°
2026-05-05 08:42 47.68288 4.62745 9029 ft 299 kts 320°
2026-05-05 08:42 47.69922 4.60856 8735 ft 297 kts 320°
2026-05-05 08:42 47.71529 4.59001 8387 ft 295 kts 321°
2026-05-05 08:43 47.73171 4.57106 7941 ft 295 kts 321°
2026-05-05 08:43 47.74768 4.55262 7554 ft 294 kts 321°
2026-05-05 08:43 47.76379 4.53401 7170 ft 292 kts 321°
2026-05-05 08:43 47.77975 4.51554 6784 ft 290 kts 321°
2026-05-05 08:44 47.79032 4.50331 6523 ft 289 kts 321°
2026-05-05 08:44 47.80615 4.48500 6123 ft 287 kts 321°
2026-05-05 08:44 47.82187 4.46676 5722 ft 285 kts 321°
2026-05-05 08:44 47.83749 4.44860 5327 ft 284 kts 321°
2026-05-05 08:45 47.85298 4.43063 4947 ft 281 kts 321°
2026-05-05 08:45 47.86841 4.41276 4864 ft 280 kts 321°
2026-05-05 08:45 47.88385 4.39487 4861 ft 281 kts 321°
2026-05-05 08:45 47.89927 4.37692 4865 ft 282 kts 320°
2026-05-05 08:46 47.91536 4.35811 4864 ft 312 kts 320°
2026-05-05 08:46 47.93314 4.33728 4864 ft 331 kts 321°
2026-05-05 08:46 47.95135 4.31596 4871 ft 334 kts 321°
2026-05-05 08:46 47.96963 4.29461 4864 ft 333 kts 321°
2026-05-05 08:47 47.98762 4.27359 4867 ft 333 kts 321°
2026-05-05 08:47 48.00584 4.25228 4861 ft 332 kts 321°
2026-05-05 08:47 48.02403 4.23103 4867 ft 332 kts 322°
2026-05-05 08:47 48.04222 4.20977 4947 ft 332 kts 322°
2026-05-05 08:48 48.06044 4.18842 4983 ft 331 kts 321°
2026-05-05 08:48 48.07855 4.16713 4976 ft 332 kts 321°
2026-05-05 08:48 48.09680 4.14563 4976 ft 334 kts 321°
2026-05-05 08:48 48.11425 4.12261 4974 ft 332 kts 316°
2026-05-05 08:49 48.13086 4.09864 4974 ft 332 kts 315°
2026-05-05 08:49 48.14724 4.07429 4975 ft 333 kts 314°
2026-05-05 08:49 48.16357 4.04969 4975 ft 333 kts 315°
2026-05-05 08:49 48.17988 4.02506 4978 ft 332 kts 315°
2026-05-05 08:50 48.19617 4.00052 4977 ft 332 kts 315°
2026-05-05 08:50 48.21248 3.97600 4973 ft 331 kts 315°
2026-05-05 08:50 48.22876 3.95162 4970 ft 328 kts 315°
2026-05-05 08:50 48.24448 3.92812 4978 ft 313 kts 315°
2026-05-05 08:51 48.25982 3.90514 4981 ft 311 kts 315°
2026-05-05 08:51 48.27514 3.88219 4979 ft 311 kts 315°
2026-05-05 08:51 48.29028 3.85948 4981 ft 311 kts 315°
2026-05-05 08:51 48.30558 3.83651 4981 ft 311 kts 315°
2026-05-05 08:52 48.32086 3.81353 4981 ft 311 kts 315°
2026-05-05 08:52 48.33620 3.79048 4978 ft 311 kts 315°
2026-05-05 08:52 48.35150 3.76744 4980 ft 311 kts 315°
2026-05-05 08:52 48.36675 3.74446 4979 ft 311 kts 315°
2026-05-05 08:53 48.38200 3.72150 4971 ft 307 kts 316°
2026-05-05 08:53 48.39687 3.69903 4976 ft 300 kts 316°
2026-05-05 08:53 48.41154 3.67686 4979 ft 299 kts 316°
2026-05-05 08:53 48.42621 3.65468 4982 ft 299 kts 316°
2026-05-05 08:54 48.44085 3.63254 4981 ft 299 kts 316°
2026-05-05 08:54 48.45554 3.61030 4972 ft 299 kts 316°
2026-05-05 08:54 48.47027 3.58805 4976 ft 300 kts 316°
2026-05-05 08:54 48.48503 3.56572 4973 ft 300 kts 316°
2026-05-05 08:55 48.49956 3.54369 4971 ft 299 kts 316°
2026-05-05 08:55 48.51431 3.52131 4978 ft 299 kts 316°
2026-05-05 08:55 48.52898 3.49899 4976 ft 299 kts 316°
2026-05-05 08:55 48.54363 3.47669 4984 ft 300 kts 316°
2026-05-05 08:56 48.55832 3.45430 4989 ft 300 kts 316°
2026-05-05 08:56 48.57298 3.43191 4986 ft 299 kts 316°
2026-05-05 08:56 48.58759 3.40958 4988 ft 299 kts 316°
2026-05-05 08:56 48.60221 3.38725 4987 ft 298 kts 316°
2026-05-05 08:57 48.61679 3.36500 4982 ft 298 kts 316°
2026-05-05 08:57 48.63124 3.34288 4984 ft 299 kts 316°
2026-05-05 08:57 48.64584 3.32051 4981 ft 298 kts 316°
2026-05-05 08:57 48.66054 3.29792 4973 ft 298 kts 316°
2026-05-05 08:58 48.67492 3.27581 4968 ft 298 kts 316°
2026-05-05 08:58 48.68951 3.25336 4965 ft 298 kts 316°
2026-05-05 08:58 48.70406 3.23101 4965 ft 298 kts 316°
2026-05-05 08:58 48.71872 3.20850 4969 ft 299 kts 316°
2026-05-05 08:59 48.73327 3.18612 4970 ft 298 kts 316°
2026-05-05 08:59 48.74783 3.16366 4973 ft 299 kts 316°
2026-05-05 08:59 48.76236 3.14123 4977 ft 298 kts 316°
2026-05-05 08:59 48.77692 3.11875 4986 ft 299 kts 316°
2026-05-05 09:00 48.79162 3.09612 5011 ft 303 kts 316°
2026-05-05 09:00 48.80633 3.07337 4996 ft 299 kts 315°
2026-05-05 09:00 48.82043 3.05137 4970 ft 289 kts 316°
2026-05-05 09:00 48.83449 3.02951 4979 ft 288 kts 316°
2026-05-05 09:01 48.84852 3.00767 4979 ft 289 kts 316°
2026-05-05 09:01 48.86201 2.98583 4975 ft 280 kts 314°
2026-05-05 09:01 48.87507 2.96412 4979 ft 279 kts 314°
2026-05-05 09:01 48.88811 2.94230 4982 ft 279 kts 314°
2026-05-05 09:02 48.90112 2.92054 4981 ft 278 kts 314°
2026-05-05 09:02 48.91391 2.89917 4982 ft 269 kts 314°
2026-05-05 09:02 48.92648 2.87824 4984 ft 268 kts 315°
2026-05-05 09:02 48.93906 2.85731 4989 ft 268 kts 314°
2026-05-05 09:03 48.95186 2.83664 4980 ft 268 kts 316°
2026-05-05 09:03 48.96479 2.81629 4978 ft 267 kts 316°
2026-05-05 09:03 48.97771 2.79611 5003 ft 266 kts 316°
2026-05-05 09:03 48.99065 2.77585 5004 ft 267 kts 316°
2026-05-05 09:04 49.00338 2.75586 5001 ft 259 kts 316°
2026-05-05 09:04 49.01581 2.73627 5018 ft 257 kts 316°
2026-05-05 09:04 49.02816 2.71678 5006 ft 256 kts 316°
2026-05-05 09:04 49.04055 2.69721 5007 ft 256 kts 316°
2026-05-05 09:05 49.05288 2.67767 5005 ft 257 kts 316°
2026-05-05 09:05 49.06530 2.65800 5006 ft 257 kts 318°
2026-05-05 09:05 49.07771 2.63840 5005 ft 256 kts 317°
2026-05-05 09:05 49.08989 2.61903 5001 ft 247 kts 317°
2026-05-05 09:06 49.10164 2.60026 5006 ft 243 kts 315°
2026-05-05 09:06 49.11152 2.57917 5001 ft 246 kts 301°
2026-05-05 09:06 49.11896 2.55557 4999 ft 248 kts 298°
2026-05-05 09:06 49.12637 2.53177 5007 ft 247 kts 298°
2026-05-05 09:07 49.13378 2.50803 4985 ft 248 kts 298°
2026-05-05 09:07 49.14114 2.48434 4986 ft 244 kts 298°
2026-05-05 09:07 49.14827 2.46131 4981 ft 238 kts 298°
2026-05-05 09:07 49.15538 2.43847 4985 ft 237 kts 298°
2026-05-05 09:08 49.16244 2.41585 4979 ft 231 kts 298°
2026-05-05 09:08 49.16919 2.39393 5004 ft 227 kts 296°
2026-05-05 09:08 49.17380 2.37064 4989 ft 231 kts 283°
2026-05-05 09:08 49.17508 2.34612 4989 ft 233 kts 269°
2026-05-05 09:09 49.17353 2.32151 5002 ft 232 kts 265°
2026-05-05 09:09 49.17188 2.29704 4996 ft 232 kts 265°
2026-05-05 09:09 49.17028 2.27253 4999 ft 232 kts 265°
2026-05-05 09:09 49.16867 2.24801 4996 ft 231 kts 265°
2026-05-05 09:10 49.16706 2.22351 5007 ft 232 kts 265°
2026-05-05 09:10 49.16546 2.19935 5001 ft 232 kts 265°
2026-05-05 09:10 49.16374 2.17479 5003 ft 232 kts 262°
2026-05-05 09:10 49.15827 2.15159 4997 ft 233 kts 239°
2026-05-05 09:11 49.14762 2.13315 5009 ft 232 kts 215°
2026-05-05 09:11 49.13351 2.12204 5007 ft 227 kts 192°
2026-05-05 09:11 49.11812 2.11966 5009 ft 221 kts 171°
2026-05-05 09:11 49.10283 2.12179 5015 ft 221 kts 170°
2026-05-05 09:12 49.08751 2.12384 5018 ft 221 kts 170°
2026-05-05 09:12 49.07234 2.12586 5014 ft 220 kts 170°
2026-05-05 09:12 49.05705 2.12795 5027 ft 220 kts 170°
2026-05-05 09:12 49.04169 2.13008 5020 ft 220 kts 170°
2026-05-05 09:13 49.02686 2.13203 5003 ft 201 kts 171°
2026-05-05 09:13 49.01345 2.13372 5002 ft 189 kts 170°
2026-05-05 09:13 49.00063 2.13637 5010 ft 184 kts 160°
2026-05-05 09:13 48.98920 2.14435 5004 ft 179 kts 141°
2026-05-05 09:14 48.98024 2.15714 5003 ft 175 kts 123°
2026-05-05 09:14 48.97450 2.17312 5004 ft 171 kts 107°
2026-05-05 09:14 48.97233 2.19073 5005 ft 169 kts 90°
2026-05-05 09:14 48.97309 2.20855 4908 ft 169 kts 84°
2026-05-05 09:15 48.97411 2.22636 4722 ft 169 kts 84°
2026-05-05 09:15 48.97513 2.24417 4524 ft 168 kts 83°
2026-05-05 09:15 48.97614 2.26188 4299 ft 167 kts 83°
2026-05-05 09:15 48.97713 2.27948 4062 ft 167 kts 83°
2026-05-05 09:16 48.97812 2.29709 3853 ft 166 kts 83°
2026-05-05 09:16 48.97908 2.31425 3626 ft 161 kts 83°
2026-05-05 09:16 48.98002 2.33095 3428 ft 156 kts 82°
2026-05-05 09:16 48.98090 2.34693 3222 ft 150 kts 83°
2026-05-05 09:17 48.98182 2.36322 3010 ft 156 kts 83°
2026-05-05 09:17 48.98272 2.37940 2803 ft 150 kts 83°
2026-05-05 09:17 48.98358 2.39493 2606 ft 145 kts 84°
2026-05-05 09:17 48.98442 2.41015 2408 ft 143 kts 85°
2026-05-05 09:18 48.98525 2.42518 2213 ft 142 kts 84°
2026-05-05 09:18 48.98608 2.44019 2027 ft 142 kts 83°
2026-05-05 09:18 48.98690 2.45510 1832 ft 142 kts 82°
2026-05-05 09:18 48.98771 2.46999 1645 ft 138 kts 82°
2026-05-05 09:19 48.98849 2.48420 1469 ft 135 kts 83°
2026-05-05 09:19 48.98926 2.49832 1279 ft 133 kts 83°
2026-05-05 09:19 48.99002 2.51230 1095 ft 132 kts 81°
2026-05-05 09:19 48.99078 2.52633 901 ft 134 kts 82°
2026-05-05 09:20 48.99155 2.54045 725 ft 135 kts 83°
2026-05-05 09:20 48.99232 2.55472 538 ft 135 kts 81°
2026-05-05 09:20 48.99307 2.56892 359 ft 133 kts 81°
2026-05-05 09:20 48.99376 2.57988 353 ft 62 kts 87°
2026-05-05 09:21 48.99387 2.58303 353 ft 16 kts 86°
2026-05-05 09:21 48.99414 2.58509 361 ft 24 kts 69°
2026-05-05 09:21 48.99484 2.58747 354 ft 25 kts 64°
2026-05-05 09:21 48.99542 2.58932 361 ft 16 kts 64°
2026-05-05 09:22 48.99609 2.59059 356 ft 16 kts 13°
2026-05-05 09:22 48.99727 2.59050 354 ft 18 kts 356°
2026-05-05 09:22 48.99854 2.59033 354 ft 18 kts 353°
2026-05-05 09:22 48.99980 2.59011 357 ft 19 kts 352°
2026-05-05 09:23 49.00040 2.58865 354 ft 18 kts 267°
2026-05-05 09:23 49.00030 2.58673 359 ft 18 kts 265°
2026-05-05 09:23 49.00020 2.58479 354 ft 18 kts 265°
2026-05-05 09:23 49.00074 2.58318 357 ft 18 kts 313°
2026-05-05 09:24 49.00096 2.58207 354 ft 6 kts 263°
2026-05-05 09:24 49.00096 2.58205 354 ft 0 kts 263°
2026-05-05 09:24 49.00100 2.58184 354 ft 7 kts 292°
2026-05-05 09:24 49.00112 2.58059 357 ft 18 kts 247°
2026-05-05 09:25 49.00072 2.57891 358 ft 8 kts 263°
2026-05-05 09:25 49.00071 2.57875 356 ft 0 kts 265°
2026-05-05 09:25 49.00076 2.57851 363 ft 8 kts 296°
2026-05-05 09:25 49.00133 2.57822 354 ft 1 kts 354°
2026-05-05 09:26 49.00142 2.57821 354 ft 2 kts 355°
2026-05-05 09:26 49.00151 2.57820 354 ft 0 kts 355°
2026-05-05 09:27 49.00150 2.57820 354 ft 0 kts 355°